This is the latest recevied weather packets stored in our database for station/object N8XHB. If no packets are shown the sender has not sent any weather packets the latest 10 day(s).
| Time | Temp. | Humidity | Pressure | Rain* | Wind** | Luminosity | Snow |
|---|---|---|---|---|---|---|---|
| 1777952684 | 16.67° C | 69% | 999.6 hPa | 0 mm | - | 0 W/m² | - |
| 1777952381 | 16.67° C | 68% | 999.4 hPa | 0 mm | - | 0 W/m² | - |
| 1777952078 | 16.67° C | 69% | 999.6 hPa | 0 mm | - | 0 W/m² | - |
| 1777951776 | 16.67° C | 69% | 999.4 hPa | 0 mm | - | 0 W/m² | - |
| 1777951473 | 16.67° C | 69% | 999.4 hPa | 0 mm | - | 0 W/m² | - |
| 1777951169 | 16.67° C | 69% | 999.5 hPa | 0 mm | - | 0 W/m² | - |
| 1777950867 | 16.67° C | 68% | 999.1 hPa | 0 mm | - | 0 W/m² | - |
| 1777950563 | 16.67° C | 69% | 998.7 hPa | 0 mm | - | 0 W/m² | - |
| 1777950259 | 16.67° C | 69% | 998.4 hPa | 0 mm | - | 0 W/m² | - |
| 1777949955 | 16.67° C | 68% | 998.3 hPa | 0 mm | - | 0 W/m² | - |
| 1777949652 | 16.67° C | 69% | 998.3 hPa | 0 mm | - | 0 W/m² | - |
| 1777949351 | 16.67° C | 68% | 998.2 hPa | 0 mm | - | 0 W/m² | - |
| 1777949048 | 16.67° C | 69% | 998.1 hPa | 0 mm | - | 0 W/m² | - |
| 1777948745 | 16.67° C | 70% | 998.2 hPa | 0 mm | - | 0 W/m² | - |
| 1777948442 | 16.67° C | 70% | 998.3 hPa | 0 mm | - | 0 W/m² | - |
| 1777948139 | 16.67° C | 70% | 998.3 hPa | 0 mm | - | 0 W/m² | - |
| 1777947836 | 17.22° C | 70% | 998.3 hPa | 0 mm | - | 0 W/m² | - |
| 1777947534 | 17.22° C | 69% | 998.7 hPa | 0 mm | - | 0 W/m² | - |
| 1777947230 | 17.22° C | 71% | 998.8 hPa | 7.11 mm | - | 0 W/m² | - |
| 1777946926 | 17.78° C | 71% | 998.7 hPa | 13.72 mm | - | 0 W/m² | - |
| 1777946621 | 19.44° C | 66% | 998.7 hPa | 7.87 mm | - | 0 W/m² | - |
| 1777946318 | 20.56° C | 56% | 999 hPa | 0 mm | - | 0 W/m² | - |
| 1777946016 | 20.56° C | 55% | 998.4 hPa | 0 mm | - | 0 W/m² | - |
| 1777945713 | 20.56° C | 55% | 997.8 hPa | 0 mm | - | 0 W/m² | - |
| 1777945410 | 20.56° C | 55% | 997.8 hPa | 0 mm | - | 0 W/m² | - |
* Rain latest hour (hover to see other rain measurements)
** Current wind speed in m/s (hover to see current wind gust speed)